Regional Weather Roundup
Issued by NWS Columbia, SC

Home | Current Version | Previous Version | Text Only | Print | Product List | Glossary On
Versions: 1 2 3 4 5 6 7 8 9 10 11 12 13 14 15 16 17 18 19 20 21 22 23 24 25 26 27 28 29 30 31 32 33 34 35 36 37 38 39 40 41 42 43 44 45 46 47 48 49 50
000
ASUS42 KCAE 271110
RWRCAE
REGIONAL WEATHER ROUNDUP
NATIONAL WEATHER SERVICE COLUMBIA SC
700 AM EDT TUE JUN 27 2017

NOTE: "FAIR" INDICATES FEW OR NO CLOUDS BELOW 12,000 FEET WITH NO
SIGNIFICANT WEATHER AND/OR OBSTRUCTIONS TO VISIBILITY.

NOT ALL STATIONS ARE QUALITY CONTROLLED BY THE NATIONAL
WEATHER SERVICE. USE DATA WITH CAUTION...ESPECIALLY
DEWPOINT OBSERVATIONS.

SCZ001>056-GAZ040-063>065-077-271200-
...UPSTATE SOUTH CAROLINA...

CITY           SKY/WX    TMP DP  RH WIND       PRES   REMARKS
ANDERSON       PTCLDY    63  60  90 CALM      30.05S
LIBERTY        MOSUNNY   57  56  99 CALM      30.06R
SPARTANBURG    MOCLDY    61  59  94 CALM      30.05S
CLEMSON        CLOUDY    62  57  83 W3        30.08R
GREENVILLE     PTCLDY    68  56  65 N6        30.07R
GREENWOOD      PTCLDY    62  59  90 CALM      30.06S
GREER          PTCLDY    63  58  83 CALM      30.05R
ROCK HILL      PTCLDY    63  59  87 CALM      30.06S
CHESTER        MOSUNNY   63  59  88 CALM      30.05F
LAURENS        MOSUNNY   61  61 100 CALM      30.05S


...CENTRAL SOUTH CAROLINA...

CITY           SKY/WX    TMP DP  RH WIND       PRES   REMARKS
COLUMBIA APT   CLOUDY    67  62  84 S3        30.04R
COLUMBIA OWENS PTCLDY    68  64  87 CALM      30.05S
ORANGEBURG     CLEAR     65  64  97 CALM      30.04S
SUMTER SHAW    PTCLDY    67  63  86 CALM      30.02S
NEWBERRY       PTSUNNY   63  63 100 CALM      30.07S
AIKEN          FAIR      66  63  88 CALM      30.08S
BARNWELL       FAIR      66  66 100 CALM      30.04F
MANNING        FAIR      63  63 100 N10       30.04S
CAMDEN         FAIR      66  64  94 CALM      30.05S
LANCASTER      CLOUDY    64  64 100 NE3       30.05S
WINNSBORO      MOSUNNY   64  61  88 SE5       30.04S


...EASTERN AND COASTAL SOUTH CAROLINA...

CITY           SKY/WX    TMP DP  RH WIND       PRES   REMARKS
MYRTLE BEACH   PTCLDY    66  64  94 NW6       30.04
N MYRTLE BCH   CLEAR     68  64  87 NW5       30.03S
CONWAY         FAIR      61  61 100 CALM      30.04S FOG
MARION         FAIR      63  61  94 CALM      30.04R
HARTSVILLE     FAIR      63  61  94 CALM      30.04S
FLORENCE       CLEAR     67  64  90 CALM      30.04S
DARLINGTON     PTCLDY    68  64  87 CALM      30.04S
CHARLESTON APT MOCLDY    71  67  87 N3        30.03S
MOUNT PLEASANT PTSUNNY   70  70 100 CALM      30.03S
WALTERBORO     CLOUDY    68  66  94 CALM      30.04F
BEAUFORT       MOCLDY    75  73  93 N3        30.02S


...EASTERN GEORGIA...

CITY           SKY/WX    TMP DP  RH WIND       PRES   REMARKS
AUGUSTA BUSH F PTCLDY    65  63  93 CALM      30.03F
AUGUSTA DANIEL MOCLDY    70  61  73 CALM      30.05S
THOMSON        CLOUDY    65  63  91 CALM      30.10S
WASHINGTON     FAIR      64  63  94 CALM      30.06S
CLAXTON        FAIR      69  68  98 CALM      30.03S FOG
SYLVANIA       CLOUDY    73  72  98 CALM      30.04F
STATESBORO     CLOUDY    73  32  22 CALM      30.03F
SAVANNAH       MOCLDY    74  71  91 N3        30.03R


...SOUTHERN NORTH CAROLINA...

CITY           SKY/WX    TMP DP  RH WIND       PRES   REMARKS
CHARLOTTE      MOCLDY    65  58  78 N3        30.07R
MONROE         MOCLDY    62  58  86 CALM      30.04S
WADESBORO      CLOUDY    61  59  92 CALM      30.05R
ROCKINGHAM     CLOUDY    64  60  87 NW5       30.04S
ASHEVILLE      CLEAR     56  51  84 N9        30.14R

$$



USA.gov is the U.S. government's official web portal to all federal, state and local government web resources and services.